When you browse on this site, cookies collect data to enhance your experience and personalize the content and advertising you see.
Visit our Privacy Policy to learn more. By continuing to use the site, you agree to this use of cookies and data.
  • In Netherlands
  • List of Countries
  • For 7 days
  • Water Temperature
  • Satellite Maps
  • Weather Map
  • Weather Widgets
  • user-avatar
    Login

    Hourly Weather Chernoyarskaya

    Today, 24 April, Wednesday

    Time Temperature Precipitation Wind Pressure Humidity
    00:00 +7°C° 0 mm 2 mps 757 mmHg 59%
    01:00 +7°C° 0 mm 2 mps 756 mmHg 60%
    02:00 +6°C° 0 mm 2 mps 756 mmHg 61%
    03:00 +5°C° 0 mm 3 mps 756 mmHg 64%
    04:00 +5°C° 0 mm 3 mps 756 mmHg 64%
    05:00 +5°C° 0 mm 3 mps 756 mmHg 64%
    06:00 +7°C° 0 mm 2 mps 756 mmHg 63%
    07:00 +9°C° 0 mm 3 mps 756 mmHg 58%
    08:00 +12°C° 0 mm 3 mps 756 mmHg 52%
    09:00 +14°C° 0 mm 3 mps 756 mmHg 46%
    10:00 +17°C° 0 mm 3 mps 755 mmHg 43%
    11:00 +18°C° 0 mm 3 mps 755 mmHg 40%
    12:00 +19°C° 0 mm 3 mps 755 mmHg 37%
    13:00 +19°C° 0 mm 3 mps 754 mmHg 38%
    14:00 +19°C° 0 mm 3 mps 754 mmHg 39%
    15:00 +19°C° 0 mm 3 mps 754 mmHg 40%
    16:00 +18°C° 0 mm 2 mps 754 mmHg 45%
    17:00 +17°C° 0 mm 2 mps 754 mmHg 49%
    18:00 +17°C° 0 mm 2 mps 754 mmHg 54%
    19:00 +15°C° 0.1 mm 2 mps 755 mmHg 58%
    20:00 +14°C° 0.1 mm 2 mps 755 mmHg 62%
    21:00 +11°C° 0.1 mm 3 mps 755 mmHg 66%
    22:00 +11°C° 0 mm 3 mps 755 mmHg 68%
    23:00 +10°C° 0 mm 3 mps 756 mmHg 69%

    Tomorrow, 25 April, Thursday

    Time Temperature Precipitation Wind Pressure Humidity
    00:00 +10°C° 0 mm 3 mps 756 mmHg 70%
    01:00 +10°C° 0.2 mm 3 mps 756 mmHg 71%
    02:00 +10°C° 0.2 mm 3 mps 756 mmHg 73%
    03:00 +10°C° 0.2 mm 3 mps 756 mmHg 74%
    04:00 +9°C° 0.3 mm 3 mps 756 mmHg 76%
    05:00 +9°C° 0.3 mm 3 mps 756 mmHg 77%
    06:00 +9°C° 0.3 mm 2 mps 756 mmHg 79%
    07:00 +12°C° 0.1 mm 2 mps 756 mmHg 74%
    08:00 +13°C° 0.1 mm 2 mps 756 mmHg 69%
    09:00 +15°C° 0.1 mm 2 mps 756 mmHg 64%
    10:00 +16°C° 0.1 mm 2 mps 755 mmHg 59%
    11:00 +19°C° 0.1 mm 1 mps 755 mmHg 55%
    12:00 +18°C° 0.1 mm 0 mps 755 mmHg 50%
    13:00 +20°C° 0.2 mm 1 mps 755 mmHg 49%
    14:00 +20°C° 0.2 mm 1 mps 755 mmHg 47%
    15:00 +21°C° 0.2 mm 1 mps 754 mmHg 46%
    16:00 +20°C° 0.2 mm 1 mps 754 mmHg 51%
    17:00 +19°C° 0.2 mm 1 mps 754 mmHg 56%
    18:00 +19°C° 0.2 mm 1 mps 754 mmHg 60%
    19:00 +16°C° 0 mm 1 mps 755 mmHg 63%
    20:00 +15°C° 0 mm 1 mps 755 mmHg 65%
    21:00 +14°C° 0 mm 1 mps 755 mmHg 68%
    22:00 +13°C° 0 mm 1 mps 755 mmHg 69%
    23:00 +13°C° 0 mm 1 mps 755 mmHg 70%

    Day after tomorrow, 26 April, Friday

    Time Temperature Precipitation Wind Pressure Humidity
    00:00 +12°C° 0 mm 2 mps 755 mmHg 71%
    01:00 +10°C° 0 mm 2 mps 755 mmHg 70%
    02:00 +11°C° 0 mm 1 mps 755 mmHg 68%
    03:00 +11°C° 0 mm 1 mps 754 mmHg 67%
    04:00 +11°C° 0 mm 1 mps 754 mmHg 66%
    05:00 +11°C° 0 mm 1 mps 754 mmHg 65%
    06:00 +11°C° 0 mm 1 mps 754 mmHg 65%
    07:00 +13°C° 0 mm 1 mps 754 mmHg 59%
    08:00 +15°C° 0 mm 1 mps 754 mmHg 53%
    09:00 +17°C° 0 mm 0 mps 753 mmHg 47%
    10:00 +20°C° 0 mm 1 mps 753 mmHg 45%
    11:00 +20°C° 0 mm 2 mps 753 mmHg 44%
    12:00 +21°C° 0 mm 2 mps 753 mmHg 42%
    13:00 +21°C° 0 mm 3 mps 752 mmHg 42%
    14:00 +22°C° 0 mm 3 mps 752 mmHg 42%
    15:00 +22°C° 0 mm 3 mps 752 mmHg 41%
    16:00 +21°C° 0 mm 3 mps 752 mmHg 46%
    17:00 +20°C° 0 mm 3 mps 751 mmHg 51%
    18:00 +20°C° 0 mm 3 mps 751 mmHg 55%
    19:00 +18°C° 0 mm 3 mps 752 mmHg 58%
    20:00 +16°C° 0 mm 3 mps 752 mmHg 60%
    21:00 +14°C° 0 mm 3 mps 752 mmHg 62%
    22:00 +14°C° 0 mm 2 mps 752 mmHg 63%
    23:00 +14°C° 0 mm 2 mps 752 mmHg 65%

    27 April, Saturday

    Time Temperature Precipitation Wind Pressure Humidity
    00:00 +13°C° 0 mm 2 mps 752 mmHg 67%
    01:00 +13°C° 0 mm 1 mps 752 mmHg 67%
    02:00 +12°C° 0 mm 1 mps 752 mmHg 67%
    03:00 +12°C° 0 mm 1 mps 752 mmHg 67%
    04:00 +11°C° 0 mm 0 mps 752 mmHg 68%
    05:00 +11°C° 0 mm 0 mps 751 mmHg 69%
    06:00 +11°C° 0 mm 0 mps 751 mmHg 70%
    07:00 +14°C° 0 mm 1 mps 751 mmHg 64%
    08:00 +16°C° 0 mm 1 mps 751 mmHg 58%
    09:00 +18°C° 0 mm 2 mps 750 mmHg 51%
    10:00 +19°C° 0 mm 2 mps 750 mmHg 48%
    11:00 +21°C° 0 mm 3 mps 750 mmHg 45%
    12:00 +22°C° 0 mm 4 mps 749 mmHg 42%
    13:00 +23°C° 0 mm 4 mps 749 mmHg 42%
    14:00 +23°C° 0 mm 4 mps 748 mmHg 41%
    15:00 +23°C° 0 mm 4 mps 748 mmHg 41%
    16:00 +22°C° 0 mm 4 mps 748 mmHg 44%
    17:00 +21°C° 0 mm 4 mps 748 mmHg 48%
    18:00 +20°C° 0 mm 4 mps 748 mmHg 52%
    19:00 +18°C° 0.1 mm 3 mps 748 mmHg 55%
    20:00 +16°C° 0.1 mm 3 mps 749 mmHg 57%
    21:00 +13°C° 0.1 mm 3 mps 749 mmHg 59%
    22:00 +13°C° 0 mm 2 mps 749 mmHg 62%
    23:00 +12°C° 0 mm 1 mps 749 mmHg 65%

    28 April, Sunday

    Time Temperature Precipitation Wind Pressure Humidity
    00:00 +12°C° 0 mm 1 mps 748 mmHg 68%
    01:00 +11°C° 0 mm 1 mps 748 mmHg 71%
    02:00 +11°C° 0 mm 1 mps 748 mmHg 74%
    03:00 +9°C° 0 mm 0 mps 748 mmHg 77%
    04:00 +9°C° 0 mm 0 mps 748 mmHg 77%
    05:00 +10°C° 0 mm 0 mps 747 mmHg 77%
    06:00 +10°C° 0 mm 0 mps 747 mmHg 77%
    07:00 +13°C° 0 mm 1 mps 747 mmHg 69%
    08:00 +15°C° 0 mm 1 mps 747 mmHg 60%
    09:00 +19°C° 0 mm 1 mps 746 mmHg 52%
    10:00 +20°C° 0 mm 1 mps 746 mmHg 49%
    11:00 +21°C° 0 mm 2 mps 746 mmHg 46%
    12:00 +23°C° 0 mm 2 mps 746 mmHg 43%
    13:00 +24°C° 0 mm 2 mps 745 mmHg 42%
    14:00 +24°C° 0 mm 2 mps 745 mmHg 42%
    15:00 +25°C° 0 mm 2 mps 745 mmHg 41%
    16:00 +24°C° 0 mm 2 mps 745 mmHg 45%
    17:00 +23°C° 0 mm 2 mps 745 mmHg 49%
    18:00 +21°C° 0 mm 2 mps 745 mmHg 53%
    19:00 +19°C° 0.4 mm 2 mps 745 mmHg 56%
    20:00 +18°C° 0.4 mm 2 mps 746 mmHg 59%
    21:00 +16°C° 0.4 mm 2 mps 746 mmHg 63%
    22:00 +16°C° 0 mm 2 mps 746 mmHg 65%
    23:00 +15°C° 0 mm 2 mps 746 mmHg 68%

    29 April, Monday

    Time Temperature Precipitation Wind Pressure Humidity
    00:00 +15°C° 0 mm 2 mps 746 mmHg 70%
    01:00 +14°C° 0 mm 2 mps 746 mmHg 71%
    02:00 +14°C° 0 mm 1 mps 746 mmHg 72%
    03:00 +14°C° 0 mm 1 mps 746 mmHg 73%
    04:00 +14°C° 0 mm 1 mps 746 mmHg 73%
    05:00 +14°C° 0 mm 1 mps 746 mmHg 72%
    06:00 +14°C° 0 mm 1 mps 746 mmHg 72%
    07:00 +16°C° 0 mm 2 mps 746 mmHg 66%
    08:00 +19°C° 0 mm 2 mps 746 mmHg 60%
    09:00 +21°C° 0 mm 2 mps 746 mmHg 55%
    10:00 +23°C° 0 mm 2 mps 745 mmHg 51%
    11:00 +24°C° 0 mm 2 mps 745 mmHg 48%
    12:00 +25°C° 0 mm 2 mps 745 mmHg 45%
    13:00 +26°C° 0 mm 2 mps 745 mmHg 43%
    14:00 +26°C° 0 mm 2 mps 744 mmHg 41%
    15:00 +27°C° 0 mm 2 mps 744 mmHg 40%
    16:00 +25°C° 0 mm 2 mps 744 mmHg 45%
    17:00 +24°C° 0 mm 2 mps 744 mmHg 50%
    18:00 +23°C° 0 mm 2 mps 744 mmHg 54%
    19:00 +21°C° 0.3 mm 2 mps 745 mmHg 58%
    20:00 +20°C° 0.3 mm 2 mps 745 mmHg 61%
    21:00 +20°C° 0.3 mm 1 mps 745 mmHg 64%
    22:00 +18°C° 1.1 mm 2 mps 745 mmHg 72%
    23:00 +17°C° 1.1 mm 3 mps 745 mmHg 80%
    Show more